Powrót do katalogu

SL-16 DEB

AktywnyLEO
NORAD 39849·DEBRIS·🇷🇺 Russia

Wystrzelony Dec 25, 1992 z Baikonur Cosmodrome

Loading…

Następne Przeloty (najbliższe 24 godziny)

TLE

ŚwieżeSource: Space-Track

Epoka: Sep 14, 2026, 01:46 UTC

1 39849U 92093LB  26257.07430179  .00000320  00000-0  21674-3 0  9997
2 39849  70.8658  31.2375 0080052  91.5258 269.5031 14.06176133629606

Śledź SL-16 DEB w czasie rzeczywistym z AllMySat

Download on the App Store